Location: Norton
(51.3000°N, 0.8167°E)
Time: 17:30:56
(UTC+00:00)

SL-8 Rocket - Pass Details

Date: 03 March 2021
Orbit: 957 x 991 km, 82.9° (Epoch: 13 April)

Event Time Altitude Azimuth Distance (km) Brightness Sun altitude
Rises 19:51:51 0° 190° (S) 3,668 7.0 -21.0°
Reaches altitude 10° 19:54:22 10° 191° (SSW) 2,720 6.3 -21.4°
Maximum altitude 20:00:36 83° 279° (W) 985 4.0 -22.3°
Drops below altitude 10° 20:06:51 10° 9° (N) 2,715 6.4 -23.3°
Sets 20:09:21 0° 10° (N) 3,662 7.1 -23.6°
